GFSSE_sfc_dewp_057.txt.gz
Dewpoint
73 76 78 77 76 76 75 75 75 76 76 77 77 77 76 76 75 75 75 74 74 74 73 73 73 74 73 74 73 73 72 72 73 72 73 73 73 72 71 72 72 69 70
74 76 78 78 76 76 75 75 75 76 76 76 77 76 76 76 75 75 76 74 74 74 73 73 74 74 73 73 72 72 72 73 72 72 71 72 73 71 69 71 72 67 71
74 76 77 78 77 76 75 75 75 75 75 74 75 75 75 76 75 75 74 74 74 75 74 73 74 74 73 72 72 72 73 73 74 73 73 71 71 72 71 71 72 70 71
75 75 76 78 78 77 76 75 75 75 75 75 75 74 75 74 73 73 74 75 75 74 74 74 74 73 73 73 74 73 74 72 73 73 71 70 70 72 70 72 72 71 70
74 75 76 78 77 76 76 76 76 76 75 75 74 74 74 73 71 72 73 74 74 74 74 74 74 73 73 72 73 73 74 73 72 71 70 70 70 69 71 71 70 71 72
75 75 77 77 76 76 76 76 76 76 75 75 75 74 74 74 73 72 73 73 74 74 74 74 74 72 73 73 73 73 73 73 72 71 69 71 70 71 72 73 71 68 71
74 75 76 78 77 77 76 76 76 76 75 75 74 74 74 74 74 74 73 74 73 73 73 74 73 73 74 73 73 73 72 72 71 71 70 71 71 73 71 72 70 72 71
74 75 76 77 77 76 76 76 75 75 74 75 74 74 74 74 74 74 74 73 74 74 73 74 74 73 74 74 73 72 72 72 71 70 70 71 72 74 71 71 71 71 70
74 75 75 75 75 76 76 76 76 75 75 75 75 75 74 74 74 74 74 74 73 74 74 73 74 74 74 74 73 73 72 71 71 70 69 71 74 74 73 72 73 73 70
74 74 74 74 74 74 74 76 76 76 75 75 75 75 75 74 74 74 75 76 74 74 74 74 73 73 75 74 74 73 72 71 71 69 69 70 74 73 73 72 72 71 70
70 71 70 69 70 71 73 75 76 76 75 75 74 74 74 73 72 73 74 74 73 73 73 73 74 74 73 74 74 74 72 72 71 69 70 72 74 73 72 71 72 72 72
69 69 68 68 69 70 73 74 74 74 73 73 74 73 73 72 72 73 74 73 73 73 73 73 74 74 74 72 72 74 73 72 71 69 71 72 74 73 73 74 72 72 73
68 68 68 69 69 68 68 70 73 74 73 73 73 72 72 71 71 69 70 72 72 73 71 72 73 72 73 72 72 72 72 71 71 71 72 73 74 73 74 74 74 73 71
66 67 67 69 68 68 68 69 71 72 72 71 72 72 70 69 67 65 67 70 71 71 71 71 70 70 69 69 69 70 71 71 71 71 72 74 74 74 74 74 74 74 73
64 65 65 68 68 68 68 70 70 70 71 71 71 71 70 68 66 66 65 70 70 70 70 69 68 65 64 64 68 70 71 71 71 71 71 73 74 74 74 75 73 73 74
66 64 66 66 68 68 68 70 70 69 69 70 69 69 70 68 68 68 67 70 69 70 69 69 68 68 68 68 68 69 68 70 71 71 70 71 74 74 74 74 75 74 74
65 64 64 65 67 66 68 71 70 69 68 69 69 67 71 69 69 69 68 68 68 69 68 67 67 67 68 69 69 70 70 70 70 71 70 70 71 74 74 75 74 74 75
64 64 64 66 68 68 70 71 70 70 69 68 69 69 70 71 70 68 67 67 67 68 67 66 65 64 65 66 67 69 70 70 70 70 71 72 71 71 73 75 73 74 74
64 63 63 62 68 70 71 70 69 69 69 69 69 70 70 71 70 70 68 67 69 68 68 66 65 66 65 66 67 68 68 69 70 70 70 70 71 71 71 73 74 74 73
63 62 61 63 68 69 69 68 67 67 68 69 70 69 68 69 70 69 68 67 68 69 69 68 67 67 67 66 69 70 69 69 69 69 69 71 71 71 71 71 71 71 73
64 63 62 66 66 68 67 65 64 65 66 67 68 69 69 69 69 68 68 68 69 69 69 69 68 68 67 68 66 66 66 67 68 68 69 69 70 70 70 71 71 71 71
64 66 64 67 65 67 69 66 65 64 65 66 68 67 68 68 68 69 68 68 69 69 69 69 69 67 67 68 65 63 61 62 65 68 67 69 68 70 70 70 70 70 70
66 66 66 66 64 66 69 65 65 64 64 64 65 67 68 69 70 70 70 69 69 68 68 68 68 68 66 66 67 64 60 59 61 67 68 68 68 68 69 69 69 69 69
66 67 65 66 67 70 67 65 62 62 61 63 66 67 69 70 70 70 69 69 69 70 69 68 69 67 66 65 66 68 65 63 59 59 66 66 68 67 66 69 68 68 67
67 67 67 68 70 69 66 66 65 64 65 66 67 66 66 68 69 69 69 68 68 68 68 68 68 68 67 66 66 65 64 64 64 62 62 63 66 67 68 69 69 68 69
68 68 69 66 70 70 66 67 68 67 68 66 65 64 66 66 67 68 69 68 68 67 68 68 68 68 68 67 66 66 65 63 62 62 63 63 63 64 65 67 67 67 68

GFSSE_sfc_dewp_060.txt.gz
Dewpoint
72 75 77 77 76 75 74 74 75 75 75 76 76 76 76 75 74 74 74 74 74 73 73 73 73 74 73 73 72 72 72 72 73 72 73 73 72 72 72 72 72 66 68
74 76 76 77 76 75 75 75 75 75 75 76 76 75 75 75 75 75 74 74 74 74 73 73 73 73 73 73 72 71 71 73 73 73 73 73 71 70 71 71 71 68 68
75 76 76 77 77 75 75 75 75 75 75 75 76 75 75 75 75 75 74 74 74 73 73 74 74 74 73 72 72 72 72 73 73 72 72 72 69 70 72 73 69 72 70
75 76 76 78 77 76 75 75 76 75 74 75 75 75 75 75 75 74 74 74 74 74 74 74 74 73 72 72 72 73 73 73 73 72 72 71 68 72 71 72 70 71 73
75 75 76 77 77 76 75 75 76 76 75 74 74 75 74 74 74 74 74 74 74 74 74 74 74 72 72 74 73 74 72 72 73 72 71 71 71 69 72 72 72 70 72
74 75 77 77 77 76 75 75 75 76 75 74 74 74 74 72 73 72 73 74 74 74 74 74 73 73 72 73 73 73 73 72 72 70 70 72 71 71 71 70 70 72 72
74 75 76 77 77 77 76 75 76 76 75 74 74 74 74 74 73 73 73 73 74 73 74 74 72 73 73 73 73 72 72 72 71 71 70 72 72 73 72 72 68 70 72
74 75 76 77 77 76 76 75 75 75 75 74 74 74 74 74 74 74 74 74 73 73 73 73 72 73 74 73 72 72 72 72 71 71 70 72 73 73 72 72 71 72 70
75 75 75 75 75 76 76 75 75 75 74 75 74 74 74 74 74 74 74 74 74 74 73 74 74 73 74 73 72 72 72 72 72 70 70 71 74 73 72 71 72 71 70
75 75 75 74 74 74 74 75 75 75 75 75 75 74 74 74 73 74 75 75 74 74 74 74 74 74 74 74 73 73 72 72 72 70 70 70 74 74 72 72 72 73 70
72 72 72 72 72 73 73 74 75 75 75 74 75 75 74 74 73 74 74 74 74 74 74 74 74 74 74 74 74 73 72 73 71 70 71 72 74 73 72 72 72 72 70
69 69 68 69 69 70 73 74 74 74 74 74 74 74 74 73 73 74 74 74 73 73 73 74 74 74 74 73 74 74 74 72 70 70 73 73 74 73 73 73 73 72 72
69 69 68 69 69 70 70 70 73 74 74 74 74 74 74 73 73 74 73 73 74 73 72 73 73 73 73 73 73 74 73 72 71 72 71 73 74 73 74 75 74 72 73
68 68 67 68 69 69 69 70 71 73 73 72 73 73 72 71 71 69 70 71 73 73 73 73 72 72 71 72 71 72 72 72 71 71 72 73 75 74 74 75 75 73 73
66 66 66 67 68 69 69 70 70 70 72 72 72 72 72 70 69 68 68 70 71 72 72 72 70 69 68 67 69 69 71 71 72 72 73 73 74 74 74 74 74 74 74
64 64 65 67 68 68 69 69 69 70 69 70 70 70 71 69 68 67 66 68 70 71 72 71 70 69 69 70 68 68 69 71 72 72 71 73 74 74 74 74 74 74 74
66 64 65 66 68 67 68 69 70 70 69 69 70 68 69 70 69 69 68 68 70 71 71 70 70 69 69 70 70 70 70 70 70 72 71 72 71 74 74 74 74 75 74
65 64 64 66 67 67 68 70 71 70 69 69 69 70 69 71 70 70 68 69 70 70 70 69 68 67 67 67 68 70 71 72 72 72 72 72 71 71 72 75 74 74 74
64 63 64 65 65 67 68 70 71 70 70 69 69 69 70 71 71 70 69 69 69 69 69 68 68 67 67 68 67 68 69 70 71 70 71 71 72 72 72 73 74 74 74
64 63 63 63 67 70 69 68 68 68 70 70 70 70 70 71 71 70 70 68 69 70 70 69 68 68 68 68 67 70 71 70 70 71 70 71 72 72 73 73 73 73 74
64 63 62 63 68 68 67 65 65 66 68 68 69 69 70 70 70 69 70 69 69 69 69 70 70 68 68 68 69 69 68 68 68 69 70 70 71 71 72 73 73 73 73
63 63 62 66 67 68 68 66 65 66 66 67 69 68 69 69 70 70 69 69 69 69 69 70 70 68 68 69 68 67 65 64 66 69 69 70 70 71 71 71 72 72 72
64 66 64 67 66 67 69 65 65 65 65 65 66 67 68 69 70 70 70 70 70 70 69 70 70 69 68 69 69 67 63 61 65 68 68 68 69 69 70 70 70 70 71
65 67 65 67 66 66 68 65 64 63 63 64 66 69 69 71 70 71 70 70 70 70 69 69 69 69 68 67 68 69 67 66 63 62 67 67 68 68 69 69 69 69 68
66 67 65 66 67 70 68 65 66 65 66 67 68 67 68 69 69 69 69 70 70 70 70 69 70 69 69 68 68 67 68 67 66 64 62 65 66 66 68 68 69 69 69
68 67 67 68 70 70 67 66 68 67 67 67 67 66 67 68 68 69 69 69 69 69 69 70 70 70 69 69 68 68 67 66 66 65 64 64 64 64 65 66 67 67 69

GFSSE_sfc_dewp_063.txt.gz
Dewpoint
69 71 77 76 75 74 75 75 75 76 77 77 76 75 75 74 74 74 73 73 73 74 73 73 74 73 73 73 72 72 72 72 72 72 72 73 71 72 71 72 71 64 69
69 70 77 77 75 74 74 75 75 76 76 77 76 76 75 74 74 74 74 73 73 73 73 73 74 74 74 72 72 72 73 73 72 73 72 70 72 73 73 72 66 65 72
70 71 73 77 76 75 75 75 75 75 75 75 76 75 74 75 74 74 74 73 73 73 73 74 74 73 73 72 72 72 73 72 73 73 72 65 66 71 70 69 72 69 71
71 71 72 77 76 76 76 76 75 75 74 75 75 75 75 75 75 74 73 73 73 73 74 74 73 73 72 72 73 72 72 72 72 72 68 64 65 72 72 70 72 71 72
72 71 73 77 77 75 75 77 76 75 75 75 75 75 75 75 74 74 74 74 73 73 74 74 73 72 72 72 73 74 73 73 73 71 70 69 65 70 72 69 71 73 72
71 71 76 77 76 75 75 76 76 76 76 75 75 75 74 74 74 74 73 74 74 74 73 73 72 72 73 73 74 72 73 73 72 69 70 71 66 71 71 72 70 72 72
72 72 73 77 77 76 76 75 75 76 76 75 74 74 73 73 73 73 73 73 73 73 73 73 73 72 73 73 73 72 73 72 68 68 70 69 69 72 72 69 72 72 71
71 72 73 76 76 76 75 75 75 75 75 74 74 74 74 73 73 74 73 73 73 73 73 73 72 73 73 73 72 73 72 72 70 69 69 69 72 72 72 70 69 71 73
72 73 74 74 75 75 75 75 75 75 75 74 75 75 74 74 74 73 73 73 73 73 73 73 72 73 73 73 72 72 73 72 70 69 68 68 74 71 72 71 72 71 71
72 73 74 75 75 75 75 75 75 75 74 74 75 74 74 74 73 73 75 74 73 73 73 73 73 73 73 73 72 72 72 72 70 69 69 68 74 73 71 72 72 71 70
73 74 75 74 75 76 76 75 75 75 75 74 75 75 74 73 71 72 73 74 74 74 73 73 73 74 74 73 73 72 72 69 68 69 69 73 73 74 73 73 72 73 71
72 73 74 74 73 74 74 76 75 74 75 74 74 75 75 74 74 72 72 73 73 73 72 73 73 73 74 69 69 72 68 68 68 69 70 73 73 73 73 74 73 73 72
71 72 72 72 71 72 74 77 74 73 75 74 75 75 74 74 74 73 72 71 73 73 70 71 71 71 72 72 69 70 70 68 67 68 70 73 74 73 73 75 74 73 72
71 70 71 71 69 70 70 75 76 76 75 75 74 75 75 73 74 73 72 72 74 74 73 72 71 72 72 72 71 72 70 69 67 67 69 72 74 74 73 74 74 73 73
70 70 71 70 70 70 71 74 74 75 74 75 75 76 75 74 74 73 72 72 72 72 72 73 73 72 72 71 71 71 70 69 69 67 67 72 74 74 74 73 74 74 73
70 70 70 68 69 70 70 72 72 72 72 73 75 74 75 75 74 73 73 72 71 72 72 72 72 72 71 69 69 70 70 70 71 71 68 68 74 74 74 74 74 74 74
68 68 66 67 69 70 70 71 72 71 71 72 73 72 72 72 70 70 71 70 72 72 73 74 73 72 70 70 70 69 68 70 69 72 72 70 69 73 75 74 74 74 74
70 67 66 66 69 70 70 71 71 72 71 71 71 71 70 71 71 70 70 68 69 71 72 71 70 68 68 68 68 68 68 70 71 72 71 71 70 70 72 74 74 74 74
68 68 67 67 68 68 69 70 72 73 73 72 72 72 71 70 72 72 70 70 72 71 71 70 70 69 67 68 67 67 68 68 70 68 71 72 72 71 70 73 74 74 74
66 67 67 66 68 70 72 72 71 71 71 72 72 72 71 71 71 72 72 71 72 71 70 69 70 69 68 68 68 66 69 68 70 70 70 70 71 72 71 73 77 70 74
65 66 67 66 70 72 71 69 68 67 70 70 72 72 72 72 72 71 70 71 70 69 69 71 70 70 69 72 68 69 69 70 70 70 70 71 70 71 72 72 73 72 70
65 65 66 66 72 72 70 69 68 69 69 70 70 70 70 70 71 71 70 70 72 69 70 70 70 69 71 69 67 68 67 66 68 69 70 70 71 71 71 72 73 73 73
64 65 65 66 72 72 72 68 69 68 68 68 68 69 70 70 70 71 71 71 71 70 67 70 70 70 70 69 70 70 67 61 65 69 69 69 70 70 70 71 72 72 73
64 66 69 67 72 72 73 68 68 66 65 67 67 69 70 70 70 72 72 72 73 72 72 71 73 72 73 68 70 70 70 67 63 64 68 68 69 69 70 69 69 70 71
66 67 67 70 71 70 72 71 66 68 67 68 69 71 72 71 70 70 70 71 72 71 71 70 71 70 71 73 71 70 70 68 67 65 62 66 67 67 69 69 69 69 70
66 67 67 68 69 70 73 72 69 71 71 70 69 68 68 69 69 71 70 70 71 71 71 71 71 72 71 71 70 70 68 67 67 68 66 66 65 65 66 67 68 70 71

GFSSE_sfc_dewp_069.txt.gz
Dewpoint
63 69 77 76 76 76 76 76 76 76 75 75 74 74 75 74 74 74 74 73 73 72 73 72 73 73 73 73 73 72 71 72 74 74 73 73 73 72 71 70 71 66 69
65 67 76 76 76 76 76 76 77 77 75 75 74 74 75 74 74 74 74 74 73 73 73 74 73 73 73 72 72 73 72 72 73 73 71 72 71 71 69 69 71 67 70
65 68 70 76 76 76 76 76 76 76 75 74 75 74 74 74 74 73 74 74 73 73 73 73 74 73 71 72 72 73 73 73 72 70 72 68 69 71 68 69 73 71 72
65 68 67 76 76 75 76 76 76 75 74 75 74 74 74 74 74 75 74 73 73 73 73 73 73 73 71 71 73 72 73 72 72 72 67 59 64 69 72 69 71 73 73
64 65 72 76 76 75 76 76 76 75 75 75 74 74 74 74 74 73 73 73 73 74 74 73 73 72 72 72 73 73 72 72 73 72 62 66 64 69 71 71 71 72 71
63 67 75 76 75 75 75 75 75 75 75 75 74 74 74 74 74 73 74 73 73 73 73 73 72 72 73 73 73 73 73 73 72 64 65 65 70 71 68 70 72 72 71
68 70 72 77 76 76 75 75 75 75 75 75 74 74 74 74 74 73 73 74 73 73 73 73 71 73 73 73 73 73 73 71 70 61 63 63 71 72 71 70 72 71 71
62 68 72 76 76 75 75 75 75 75 75 75 73 74 74 74 73 73 73 73 73 74 74 73 72 74 74 73 72 72 72 72 66 61 62 66 72 72 70 68 72 71 69
64 69 71 73 75 75 75 75 75 75 75 75 74 74 73 73 73 73 73 73 73 73 74 72 73 73 73 73 72 72 73 73 70 68 60 65 73 72 73 70 68 70 72
65 69 71 75 75 75 72 75 75 75 74 74 74 73 74 74 74 74 74 73 73 73 74 73 73 73 73 73 72 72 72 73 68 66 62 67 74 71 72 71 70 72 70
67 70 72 73 75 75 75 74 75 74 73 73 73 73 72 70 71 72 73 74 73 73 73 73 73 74 73 73 72 72 72 67 67 66 67 74 74 72 71 72 72 71 70
67 67 72 74 73 73 74 75 74 72 70 70 71 73 71 72 74 74 72 73 73 73 73 73 74 74 74 66 69 72 67 67 66 67 69 75 75 73 73 73 72 72 72
69 70 72 73 73 73 72 75 77 76 73 77 73 74 75 75 71 70 76 70 69 73 70 71 71 69 68 67 68 67 63 67 67 67 73 75 75 73 73 74 74 73 73
69 69 70 74 72 71 72 72 76 76 75 76 74 75 78 76 75 75 71 74 75 70 73 73 69 71 72 71 71 69 64 66 67 67 73 75 75 74 74 74 75 75 74
69 70 72 73 73 72 73 73 71 74 69 70 71 75 73 71 72 69 73 72 72 75 70 71 73 71 74 71 69 72 66 65 64 67 72 76 75 75 74 74 74 75 74
69 70 72 72 74 73 71 73 71 71 76 68 73 71 73 72 73 69 69 66 69 71 72 71 71 75 70 70 69 72 72 70 66 65 64 72 75 75 75 75 75 75 74
69 70 70 72 71 72 73 71 71 71 75 74 75 75 72 73 75 74 67 67 70 71 73 72 74 71 70 71 70 72 68 68 68 70 66 67 71 75 75 75 75 75 75
70 71 71 68 71 72 72 72 70 69 69 68 68 69 73 73 74 73 68 66 68 71 69 69 71 75 70 71 71 70 71 71 71 69 71 72 72 70 73 75 75 75 75
71 71 71 70 71 72 73 71 73 73 70 67 67 75 73 73 73 73 69 68 71 69 71 71 71 71 71 69 70 70 70 67 68 65 68 69 73 71 74 74 75 74 75
68 70 71 70 71 71 71 72 70 72 72 73 73 74 73 73 72 72 71 71 72 68 67 71 71 69 70 69 66 67 72 71 70 70 68 67 73 71 71 73 74 72 74
67 69 72 70 72 71 71 69 67 64 68 69 71 73 73 73 72 72 73 75 72 70 72 72 73 72 67 69 71 64 65 67 66 66 70 69 72 71 72 71 79 72 71
67 69 70 71 72 73 69 69 68 69 69 70 71 73 73 73 73 73 72 72 72 72 73 71 71 68 67 69 69 71 61 65 67 68 75 71 71 74 71 71 73 73 74
67 68 69 71 73 73 71 69 70 70 71 69 71 71 71 72 72 73 71 71 72 72 70 71 73 72 72 75 73 69 66 66 67 73 71 69 70 69 72 71 72 73 74
66 67 69 70 72 72 73 69 69 67 70 72 68 69 69 70 70 72 73 72 71 71 71 70 74 75 74 72 73 69 70 70 65 64 70 69 69 69 72 73 70 71 73
66 66 67 70 71 73 73 71 68 69 68 67 66 71 72 71 71 70 70 71 71 73 75 74 74 74 75 73 73 70 70 69 68 67 65 68 67 67 68 69 73 74 73
66 67 67 70 72 73 72 72 71 70 69 69 72 70 71 69 71 70 69 71 71 72 73 72 73 73 73 73 71 69 69 71 69 68 68 68 67 65 66 67 68 73 73

GFSSE_sfc_dewp_072.txt.gz
Dewpoint
67 71 78 78 78 78 77 77 77 76 75 75 74 74 74 74 74 74 74 73 73 73 73 73 73 74 74 73 72 71 73 74 74 73 74 73 72 73 73 71 72 66 72
67 70 77 78 78 78 77 78 77 76 75 75 75 74 74 74 74 74 74 73 73 73 74 73 73 74 73 73 72 71 71 73 73 74 72 72 72 70 72 72 71 67 69
65 69 72 77 77 77 77 78 77 77 75 75 75 75 74 74 73 73 73 74 73 73 74 74 73 73 73 73 73 72 73 73 74 72 73 68 68 69 72 71 70 73 72
66 65 70 77 77 77 77 78 77 76 75 75 76 75 74 74 74 73 73 73 72 73 73 74 74 73 72 73 73 73 72 72 72 71 71 65 61 71 70 74 73 72 70
67 65 71 77 77 76 77 77 77 76 76 75 75 74 74 74 74 74 73 73 74 73 74 74 73 72 72 73 73 73 72 72 72 72 70 70 64 72 71 71 72 72 72
71 68 75 76 76 76 76 77 77 76 76 75 74 74 74 74 74 74 73 73 74 74 74 73 72 72 73 73 73 72 72 72 72 70 69 71 67 71 73 72 73 72 70
70 71 72 76 76 76 75 76 76 76 76 75 74 74 74 74 74 73 73 74 73 73 74 73 72 73 74 74 73 73 73 72 70 67 66 70 70 73 71 72 73 72 72
70 70 71 76 77 76 75 74 75 75 75 75 74 73 74 74 74 74 74 73 73 73 74 73 73 74 74 73 72 72 72 72 70 67 67 69 72 73 71 72 72 70 69
68 72 73 73 74 75 75 75 75 75 75 74 74 74 74 73 73 74 73 73 73 74 74 74 72 74 74 73 72 72 73 73 70 70 67 69 74 74 71 69 72 72 71
68 71 73 75 76 75 73 75 75 74 74 74 74 74 74 73 73 73 74 75 73 74 74 73 73 73 73 73 73 72 73 73 69 68 69 68 74 74 74 70 69 71 72
69 71 68 71 74 75 75 75 75 74 74 74 74 73 74 72 73 74 74 75 73 73 74 73 74 74 74 74 73 73 72 68 67 69 68 73 74 74 74 73 71 73 71
69 70 65 71 72 73 73 76 75 72 71 72 72 74 72 73 74 74 74 74 74 73 73 74 74 74 73 70 71 73 70 67 68 69 71 74 74 74 73 74 73 73 72
71 71 73 73 72 72 72 73 75 77 74 76 75 75 75 75 74 72 74 72 74 74 72 73 73 72 71 70 68 69 68 66 67 68 72 75 75 75 74 75 75 74 73
71 72 73 73 73 73 73 72 75 74 75 76 76 76 76 76 76 75 73 75 73 73 73 72 72 71 70 70 69 69 68 67 69 68 73 76 75 75 74 75 76 75 74
70 73 74 75 74 73 74 76 75 74 76 73 73 76 76 76 75 74 73 73 74 75 74 74 75 72 73 73 72 71 70 70 69 69 72 76 76 75 76 75 75 75 75
70 73 74 74 74 75 74 74 75 75 74 75 76 75 76 74 76 75 74 72 74 73 74 74 74 74 73 74 73 73 70 71 71 70 72 74 75 75 76 76 76 76 75
71 73 73 73 74 74 74 74 74 74 75 75 74 74 75 75 76 75 74 72 72 74 75 72 74 75 74 73 73 71 71 71 70 69 70 72 73 75 75 75 76 76 76
71 73 74 71 73 73 74 74 73 72 72 73 73 73 75 75 75 76 72 71 73 72 74 74 73 74 74 73 72 72 71 71 71 71 71 70 72 71 74 75 75 74 74
73 74 73 72 73 73 74 74 75 76 74 73 72 74 74 74 74 75 73 73 74 74 75 73 74 74 73 72 71 69 70 72 70 68 70 70 70 73 72 74 74 73 74
73 73 73 72 74 74 74 75 73 75 74 75 75 75 73 75 74 74 73 73 73 71 73 72 73 73 72 73 69 67 71 69 71 70 71 69 73 72 73 73 71 71 73
71 73 73 73 74 72 72 72 72 71 71 73 73 74 74 72 73 73 72 74 73 71 70 73 73 70 71 73 69 70 70 69 69 69 69 72 72 74 72 74 73 73 72
70 72 74 73 74 73 73 74 74 74 72 74 76 74 74 73 72 72 72 72 74 72 73 72 72 71 71 71 70 70 67 68 69 69 72 71 71 73 72 73 73 73 74
69 72 72 73 74 74 75 73 74 74 74 72 73 74 74 73 73 72 72 72 73 72 70 71 72 71 69 70 72 69 66 64 69 71 70 71 71 71 73 72 72 73 73
69 70 73 73 74 75 76 72 73 73 72 73 74 73 73 72 72 72 72 72 72 72 70 70 70 69 70 68 71 71 71 70 65 63 68 67 70 70 71 72 72 72 72
68 69 71 73 74 75 76 76 73 73 73 72 73 74 74 73 72 71 71 72 72 72 71 71 71 71 71 70 70 70 70 70 69 66 63 65 68 68 68 68 70 72 72
68 68 69 72 74 76 75 74 75 74 74 72 72 72 71 72 72 72 71 71 70 70 69 70 71 70 70 71 71 69 67 67 66 66 65 67 66 65 66 66 67 71 71

GFSSE_sfc_dewp_075.txt.gz
Dewpoint
72 76 78 79 78 78 77 77 76 75 75 74 74 74 74 74 75 74 74 73 74 73 73 74 74 74 74 72 72 74 74 73 73 73 72 73 73 72 72 72 71 70 71
73 75 78 78 78 78 78 78 77 76 75 74 74 74 74 74 74 74 74 73 74 74 74 73 74 73 73 72 71 72 74 74 74 74 72 72 71 71 74 71 69 71 73
72 75 76 78 78 78 78 78 77 76 74 74 75 75 74 74 74 74 74 74 74 74 74 74 74 73 73 73 72 73 74 73 74 72 72 68 68 72 70 71 72 71 73
72 73 75 78 78 78 78 78 78 76 74 75 75 74 74 74 74 74 74 74 74 74 74 74 73 73 73 74 73 73 73 73 72 73 70 65 65 72 73 73 72 71 72
69 72 75 78 78 77 77 78 77 76 76 75 75 74 74 74 74 74 73 74 73 74 74 74 73 72 74 73 73 73 73 73 72 71 72 63 69 69 73 73 72 71 72
68 72 77 78 77 76 77 77 77 76 77 76 75 74 74 74 74 74 73 74 73 74 74 73 72 72 73 73 73 72 72 72 71 71 63 68 70 72 72 72 73 71 72
71 73 75 77 78 77 77 76 76 76 76 75 75 74 74 74 74 74 74 74 73 74 74 72 72 73 72 73 73 72 72 72 70 69 67 66 70 74 74 74 72 71 72
72 73 73 76 77 76 76 76 76 76 75 75 74 74 74 73 74 74 74 74 73 74 74 73 74 74 74 73 73 73 72 71 70 69 69 67 72 74 73 73 72 72 73
71 74 73 74 74 75 75 75 75 75 75 75 74 75 74 74 74 74 74 74 74 73 74 73 74 74 74 72 72 72 72 72 71 69 67 69 74 74 73 73 71 71 71
70 66 73 74 74 73 74 76 76 75 75 74 73 74 74 74 74 74 75 75 74 74 74 74 73 74 74 73 73 72 72 72 70 69 67 69 74 73 71 73 73 73 72
62 63 67 73 74 74 74 75 76 75 74 74 73 74 74 72 72 73 74 74 74 74 74 73 73 74 74 73 73 73 73 70 68 68 68 74 75 75 72 71 71 71 73
60 63 67 67 73 73 74 74 73 73 73 72 73 72 72 72 73 74 74 75 74 74 74 74 75 75 73 72 72 73 71 69 67 69 68 74 75 76 73 73 73 73 71
61 63 64 69 71 71 71 73 74 74 72 72 72 73 72 73 72 72 73 73 72 74 72 74 74 73 72 71 70 71 70 68 67 68 71 74 75 75 74 74 74 73 73
65 62 63 72 71 70 70 70 72 72 72 72 73 73 72 72 72 72 72 72 72 72 72 72 72 72 71 70 69 69 68 67 70 70 72 75 75 75 75 75 75 74 73
70 69 71 71 71 71 72 71 72 72 72 73 71 72 73 72 71 72 72 72 72 72 72 72 72 72 71 71 71 71 70 68 69 69 72 75 75 75 75 75 75 75 74
71 72 72 72 72 72 71 71 71 72 72 72 72 73 73 72 72 72 71 71 71 72 72 72 71 71 72 72 71 71 71 70 69 69 71 73 75 75 74 76 76 76 75
72 73 72 72 72 72 72 71 70 72 72 72 71 71 72 72 72 72 72 70 70 72 71 71 72 72 71 71 70 70 70 69 68 68 71 71 74 75 75 75 75 76 76
72 72 72 72 72 70 71 71 72 71 71 72 72 72 70 72 72 71 71 70 72 72 72 71 71 71 69 70 70 70 69 69 69 69 69 70 71 71 74 75 75 75 75
72 72 71 71 71 71 71 72 72 71 71 70 71 71 71 72 72 71 71 71 73 71 71 71 70 70 69 69 68 69 69 70 69 68 68 69 70 71 71 73 74 74 74
72 71 71 71 71 72 71 72 71 72 72 72 72 72 71 72 72 72 71 71 71 69 69 69 68 70 70 69 71 70 68 68 69 69 68 69 72 72 72 72 72 72 73
71 71 69 71 71 72 71 71 70 70 71 71 71 72 71 71 72 72 70 70 70 68 67 68 69 69 68 69 67 67 68 69 67 68 67 69 70 72 72 72 71 71 73
71 71 70 72 70 69 70 71 71 70 70 70 72 72 72 72 71 72 71 70 71 70 69 69 69 68 68 69 65 65 63 63 67 69 69 70 69 72 71 71 72 73 72
70 71 71 72 71 70 72 72 70 69 70 70 70 71 72 72 71 71 72 71 71 71 70 69 68 67 65 67 68 65 61 59 63 67 66 66 69 71 71 71 71 71 72
69 71 71 72 71 71 72 69 68 68 67 69 69 71 71 71 71 71 71 71 70 70 69 69 69 68 67 66 67 69 67 65 61 60 65 64 69 69 68 68 70 71 71
69 70 71 71 71 72 72 70 69 68 68 69 69 70 70 69 70 71 70 70 71 71 70 70 69 68 68 66 66 67 68 67 66 62 60 62 67 67 66 67 67 69 71
68 69 70 71 71 73 72 70 70 68 67 68 68 68 70 70 70 70 69 69 70 70 69 69 69 69 69 69 69 68 66 65 64 64 63 63 64 65 65 66 66 69 70